Location: Glasgow
(55.8642°N, 4.2518°W)
Time: 13:34:04
(UTC+01:00)

ISS - Pass Details

Date: 08 October 2017
Orbit: 401 x 408 km, 51.6° (Epoch: 19 October)

Event Time Altitude Azimuth Distance (km) Brightness Sun altitude
Rises 20:10:47 0° 270° (W) 2,328 1.8 -14.4°
Reaches altitude 10° 20:13:01 10° 259° (W) 1,468 0.1 -14.7°
Maximum altitude 20:15:56 30° 197° (SSW) 769 -2.4 -15.1°
Enters shadow 20:17:17 21° 155° (SSE) 963 -2.3 -15.3°
